Miscellaneous Local Product
Issued by NWS North Platte, NE

Home | Current Version | Previous Version | Graphics & Text | Print | Product List | Glossary On
Versions: 1 2 3 4 5 6 7 8 9 10 11 12 13 14 15 16 17 18 19 20 21 22 23 24 25 26 27 28 29 30 31 32 33 34 35 36 37 38 39 40 41 42 43 44 45 46 47 48 49 50
814
AXUS43 KLBF 262110
MISLBF


WESTERN AND NORTH CENTRAL NEBRASKA HOURLY WEATHER ROUNDUP
NATIONAL WEATHER SERVICE NORTH PLATTE NE
400 PM CDT MON SEP 26 2016

NOTE: "FAIR" INDICATES FEW OR NO CLOUDS BELOW 12,000 FEET WITH NO
SIGNIFICANT WEATHER AND/OR OBSTRUCTIONS TO VISIBILITY.

NOTE: STATIONS NOT REPORTING VARIABLES SUCH AS SKY/WEATHER OR
PRESSURE ARE PROVIDED BY RAWS AND APRS NETWORKS AND ARE NOT UNDER
NATIONAL WEATHER SERVICE QUALITY CONTROL.

...OBSERVATIONS IN AND NEAR THE EASTERN PANHANDLE OF NEBRASKA...

CITY           SKY/WX    TMP DP  RH WIND       PRES   REMARKS
PINE RIDGE     SUNNY     75  40  28 VRB7G21   30.22S
CHADRON        SUNNY     73  39  29 NW22G30   30.23F
ALLIANCE       SUNNY     73  40  30 NW13      30.24F
SIDNEY         LGT RAIN  74  38  27 N10       30.30F
CRESCENT LAKE    N/A     74  39  27 N12G21      N/A
$$

...OBSERVATIONS IN NORTHERN NEBRASKA AND FAR SOUTHERN SOUTH DAKOTA...

CITY           SKY/WX    TMP DP  RH WIND       PRES   REMARKS
WINNER         FAIR      75  38  26 NW15G26   30.15F
VALENTINE      SUNNY     75  36  24 N17G23    30.18F
THEDFORD       SUNNY     76  40  27 NW15G22   30.20F
AINSWORTH      SUNNY     73  40  30 NW16G28   30.18F
O`NEILL        SUNNY     74  32  21 NW17G26   30.15F
ORD            SUNNY     76  37  24 NW16G25   30.14F
BROKEN BOW     SUNNY     77  37  23 NW14G24   30.17F
VALENTINE NWR    N/A     74  38  26 NW12G23     N/A
BUTTE            N/A     71  39  30 NW16G29     N/A
HALSEY           N/A     76  38  25 NW9G20      N/A
EWING            N/A     73  45  37 NW12G20     N/A
$$

...OBSERVATIONS IN SOUTHWEST NEBRASKA AND FAR NORTHEAST COLORADO...

CITY           SKY/WX    TMP DP  RH WIND       PRES   REMARKS
HOLYOKE        FAIR      79  36  21 NW12G22   30.26F
IMPERIAL       SUNNY     78  34  20 N18G26    30.23F
OGALLALA       SUNNY     78  37  22 N10G18    30.23F
NORTH PLATTE   SUNNY     78  41  26 NW15      30.20F
MCCOOK         SUNNY     80  39  23 NW12G21   30.19F
LEXINGTON      SUNNY     77  39  25 NW10G16   30.18F
STAPLETON        N/A     76  42  29 CALM        N/A
GOTHENBURG       N/A     75  36  24 W8          N/A
CALLAWAY         N/A     76  40  27 N14         N/A
$$

...OBSERVATIONS IN CENTRAL LINCOLN COUNTY AREA...

CITY           SKY/WX    TMP DP  RH WIND       PRES   REMARKS
N.P. AIRPORT   SUNNY     78  41  26 NW15      30.20F
N.P. DOWNTOWN    N/A     76  41  28 NW6G16      N/A
N.P. SOUTHEAST   N/A     77  41  27 NW3         N/A
N.P. HILLCREST   N/A     76  40  27 N12G18      N/A
$$

...SOME OBSERVATIONS FROM AROUND THE REGION...

CITY           SKY/WX    TMP DP  RH WIND       PRES   REMARKS
DENVER         MOSUNNY   75  28  17 NE8       30.33F
LARAMIE        SUNNY     66  34  30 NW6       30.41F
CHEYENNE       SUNNY     72  33  24 NW17G25   30.35F
SCOTTSBLUFF    SUNNY     76  39  26 NW9       30.27F
RAPID CITY     SUNNY     73  40  30 N23G35    30.21S
BISMARCK       SUNNY     68  33  27 N15G26    30.12S
PIERRE         SUNNY     73  38  27 NW16      30.12F
SIOUX FALLS    MOSUNNY   71  39  31 NW17G28   30.06F
OMAHA          MOSUNNY   77  41  27 NW15      30.11F
GRAND ISLAND   SUNNY     78  38  23 NW13      30.15F
KANSAS CITY    SUNNY     73  42  32 W10       30.18F
WICHITA        MOSUNNY   75  40  28 N9        30.23F
OKLAHOMA CITY  PTSUNNY   76  37  24 NE15      30.20F
DALLAS         LGT RAIN  64  58  80 NE13      30.14F
AMARILLO       SUNNY     73  34  23 E12G17    30.33S
DODGE CITY     SUNNY     77  30  17 CALM      30.25F
HAYS           SUNNY     79  34  19 SW7       30.21F
GOODLAND       SUNNY     79  36  21 W10G21    30.24F
$$




USA.gov is the U.S. government's official web portal to all federal, state and local government web resources and services.